Location: Cabeza de los Veneras
(40.2000°N, 5.2000°W)
Time: 12:48:01
(UTC+00:00)

CSL-04 Rocket - Pass Details

Date: 18 April 2024
Orbit: 804 x 860 km, 98.8° (Epoch: 21 May)

Event Time Altitude Azimuth Distance (km) Brightness Sun altitude
Exits shadow 20:12:52 - 161° (SSE) 2,674 5.9 -13.2°
Reaches altitude 10° 20:13:22 10° 161° (SSE) 2,478 5.7 -13.3°
Maximum altitude 20:18:52 81° 75° (ENE) 863 3.7 -14.2°
Drops below altitude 10° 20:24:21 10° 349° (NNW) 2,464 6.7 -15.1°
Sets 20:26:42 0° 348° (NNW) 3,394 7.5 -15.5°
